Location: Unnamed
(51.5169°N, 0.1311°W)
Time: 01:34:18
(UTC+01:00)

Tiangong - Visible Passes

Search period start: 14 July 2024 00:00
Search period end: 24 July 2024 00:00
Orbit: 373 x 378 km, 41.5° (Epoch: 13 July)

Date Brightness Start Highest point End Pass type
(mag) Time Alt. Az. Time Alt. Az. Time Alt. Az.
16 Jul 0.2 03:55:27 10° S 03:56:22 11° SSE 03:57:17 10° SSE visible
18 Jul 0.0 03:27:24 12° S 03:27:24 12° S 03:28:45 10° SE visible
19 Jul -0.1 03:59:34 12° SSW 04:00:40 13° S 04:02:15 10° SSE visible
21 Jul 0.1 03:32:12 11° SSE 03:32:12 11° SSE 03:32:38 10° SSE visible
